カタログに戻る

DELTA 1 DEB

運用中LEO
NORAD 13524·DEBRIS·🇺🇸 United States

打ち上げ Nov 6, 1973 から Vandenberg Space Force Base

Loading…

次のパス (今後24時間)

TLE

最新Source: Space-Track

元期: Sep 14, 2026, 12:58 UTC

1 13524U 73086GM  26257.54085880  .00000048  00000-0  66203-3 0  9991
2 13524 102.8713 272.9885 0042039 247.6394 265.2885 12.48413067 87886

AllMySatでDELTA 1 DEBをリアルタイム追跡

Download on the App Store